{"data":{"norad_id":58547,"epoch":"2026-05-25T04:39:02.593728Z","epoch_age_seconds":51517,"freshness":"FRESH","line1":"1 58547U 23192S   26145.19378002 -.00004453  00000+0 -13824-3 0  9992","line2":"2 58547  53.1602  57.0441 0001061  82.5688 277.5434 15.30219687137841","mean_motion":15.30219687,"eccentricity":0.0001061,"inclination_deg":53.1602,"raan_deg":57.0441,"arg_perigee_deg":82.5688,"mean_anomaly_deg":277.5434,"bstar":-0.00013824,"rev_number":13784,"period_min":94.104134996663,"perigee_km":474.42915379826,"apogee_km":475.88342263402,"semimajor_km":6853.2932882161,"source":"CELESTRAK","updated_at":"2026-05-25T13:38:18.663728Z"}}